Flag for Slovakia Weather past 2 weeks in Prievidza, Slovakia

Now
46 °F

Light rain. Overcast.


Feels Like: 42 °F
Forecast: 31 / 44 °F
Wind: 7 mph from Southwest

Location: Prievidza

Current Time: Mar 30, 2015 at 6:53:52 AM

Latest Report: Mar 30, 2015 at 6:00 AM


Visibility: 5 mi

Pressure: 29.47 "Hg

Humidity: 92%

Dew point: 44 °F

Location of PrievidzaLocation

Historic Weather in Prievidza — Graph

°F

Prievidza temperature yesterday

Maximum temperature yesterday: 52 °F (at 1:00 PM)
Minimum temperature yesterday: 31 °F (at 7:00 AM)
Average temperature yesterday: 43 °F

Past Weeks' High & Low Weather Summary

 TemperatureHumidityPressure
High64 °F (Mar 25, 11:00 AM)96% (Mar 27, 7:00 AM)30.60 "Hg (Mar 27, 7:00 AM)
Low25 °F (Mar 21, 6:00 AM)21% (Mar 18, 2:00 PM)29.50 "Hg (Mar 30, 4:00 AM)
Average46 °F64%30.13 "Hg
* Reported Mar 15 3:00 AM — Mar 30 4:00 AM, Prievidza, Weather by CustomWeather, © 2015

Note: Actual official high and low records may vary slightly from our data, if they occured in-between our weather recording intervals... More about our weather records

Advertising

Prievidza weather history for previous 24 hours

 ConditionsComfort  
Time TempWeatherWind HumidityBarometerVisibility
4:00 AM
Mon, Mar 30
46 °FLight rain. Overcast.5 mph90%29.50 "Hg5 mi
3:00 AM46 °FLight rain. Overcast.5 mph95%29.54 "Hg6 mi
2:00 AM46 °FRain. Overcast.3 mph96%29.57 "Hg2 mi
1:00 AM44 °FRain. Overcast.2 mph95%29.61 "Hg1 mi
12:00 AM43 °FRain. Overcast.No wind94%29.65 "Hg1 mi
11:00 PM
Sun, Mar 29
43 °FQuite cool.N/A93%29.67 "Hg1 mi
10:00 PM43 °FLight rain. Overcast.No wind90%29.70 "Hg3 mi
9:00 PM44 °FLight rain. Overcast.No wind89%29.72 "Hg4 mi
8:00 PM44 °FFog.No wind84%29.73 "Hg5 mi
7:00 PM44 °FFog.No wind84%29.74 "Hg4 mi
6:00 PM44 °FOvercast.2 mph86%29.75 "Hg5 mi
5:00 PM46 °FOvercast.5 mph73%29.76 "Hg7 mi
4:00 PM47 °FOvercast.2 mph72%29.77 "Hg9 mi
3:00 PM46 °FLight rain. Overcast.3 mph75%29.80 "Hg9 mi
2:00 PM48 °FOvercast.5 mph61%29.80 "Hg12 mi
1:00 PM52 °FOvercast.5 mph50%29.82 "Hg14 mi
12:00 PM49 °FOvercast.N/A55%29.85 "Hg12 mi
11:00 AM46 °FOvercast.3 mph64%29.88 "Hg9 mi
10:00 AM43 °FOvercast.N/A69%29.91 "Hg9 mi
9:00 AM40 °FChilly.No wind79%29.93 "HgN/A
8:00 AM37 °FOvercast.No wind87%29.94 "Hg6 mi
7:00 AM31 °FFog.No wind90%29.96 "Hg3 mi
Weather by CustomWeather, © 2015

See weather overviewHow to use our weather pages